Flag for U.S.A. Weather past 2 weeks in Sarasota, Florida, U.S.A.

Now
64 °F

Overcast.


Feels Like: 64 °F
Forecast: 60 / 73 °F
Wind: 6 mph from Southeast

Location: Sarasota-Bradenton International Airport

Current Time: Dec 21, 2014 at 8:54:25 AM

Latest Report: Dec 21, 2014 at 7:53 AM


Visibility: 10 mi

Pressure: 30.06 "Hg

Humidity: 94%

Dew point: 62 °F

Location of SarasotaLocation

Historic Weather in Sarasota — Graph

°F

Sarasota temperature yesterday

Maximum temperature yesterday: 75 °F (at 11:53 AM)
Minimum temperature yesterday: 52 °F (at 12:53 AM)
Average temperature yesterday: 64 °F

Past Weeks' High & Low Weather Summary

 TemperatureHumidityPressure
High78 °F (Dec 6, 10:53 AM)100% (Dec 6, 6:53 AM)30.28 "Hg (Dec 6, 6:53 AM)
Low41 °F (Dec 13, 3:53 AM)30% (Dec 13, 1:53 PM)30.01 "Hg (Dec 20, 1:53 PM)
Average58 °F81%30.11 "Hg
* Reported Dec 6 6:53 AM — Dec 21 6:53 AM, Sarasota, Weather by CustomWeather, © 2014

Note: Actual official high and low records may vary slightly from our data, if they occured in-between our weather recording intervals... More about our weather records

Advertising

Sarasota weather history for previous 24 hours

 ConditionsComfort  
Time TempWeatherWind HumidityBarometerVisibility
6:53 AM
Dec 21
61 °FPassing clouds.6 mph97%30.05 "Hg10 mi
5:53 AM61 °FPassing clouds.3 mph93%30.04 "Hg10 mi
4:53 AM61 °FClear.5 mph93%30.03 "Hg10 mi
3:53 AM63 °FOvercast.5 mph90%30.03 "Hg10 mi
2:53 AM62 °FPassing clouds.3 mph90%30.03 "Hg10 mi
1:53 AM60 °FPassing clouds.3 mph96%30.05 "Hg10 mi
12:53 AM64 °FClear.3 mph90%30.05 "Hg10 mi
11:53 PM
Dec 20
65 °FOvercast.No wind91%30.05 "Hg10 mi
10:53 PM66 °FOvercast.3 mph87%30.07 "Hg10 mi
9:53 PM66 °FOvercast.5 mph84%30.06 "Hg10 mi
8:53 PM64 °FOvercast.No wind90%30.06 "Hg10 mi
7:53 PM66 °FPassing clouds.No wind81%30.05 "Hg10 mi
6:53 PM68 °FClear.5 mph76%30.04 "Hg10 mi
5:53 PM70 °FPassing clouds.8 mph71%30.02 "Hg10 mi
4:53 PM72 °FSunny.8 mph68%30.03 "Hg10 mi
3:53 PM74 °FSunny.9 mph62%30.02 "Hg10 mi
2:53 PM74 °FSunny.10 mph62%30.01 "Hg10 mi
1:53 PM75 °FSunny.9 mph55%30.01 "Hg10 mi
12:53 PM75 °FSunny.9 mph58%30.04 "Hg10 mi
11:53 AM75 °FSunny.12 mph58%30.06 "Hg10 mi
10:53 AM73 °FSunny.10 mph59%30.09 "Hg10 mi
9:53 AM69 °FSunny.9 mph70%30.09 "Hg10 mi
8:53 AM61 °FSunny.5 mph83%30.09 "Hg10 mi
Weather by CustomWeather, © 2014

See weather overviewHow to use our weather pages